Location: Emblem
(62.4273°N, 6.4710°E)
Time: 20:00:09
(UTC+02:00)

Vanguard 2 - Pass Details

Date: 09 February 2023
Orbit: 553 x 2927 km, 32.9° (Epoch: 27 March)

Event Time Altitude Azimuth Distance (km) Brightness Sun altitude
Rises 01:24:40 0° 250° (WSW) 5,994 - -42.0°
Reaches altitude 10° 01:31:11 10° 230° (SW) 5,372 - -41.8°
Maximum altitude 01:38:27 15° 203° (SSW) 5,248 - -41.6°
Drops below altitude 10° 01:46:11 10° 176° (S) 5,755 - -41.3°
Sets 01:53:46 0° 157° (SSE) 6,691 - -41.0°
